Location: Montreal
(45.5087°N, 73.5540°W)
Time: 17:52:12
(UTC-04:00)

Envisat - Pass Details

Date: 02 February 2023
Orbit: 763 x 765 km, 98.2° (Epoch: 20 March)

Event Time Altitude Azimuth Distance (km) Brightness Sun altitude
Rises 03:01:43 0° 25° (NNE) 3,242 6.8 -43.9°
Reaches altitude 10° 03:04:29 10° 40° (NE) 2,310 6.0 -43.5°
Enters shadow 03:04:32 10° 40° (NE) 2,296 6.0 -43.5°
